Погода в Старосеславино

Россия / Тамбовская область     53°12′06″N   40°24′43″E
темп.,
°C
ветер,
м/с
пор.,
м/с
влажн.,
%
обл.,
%
осадки,
мм/ч
давл.,
гПа
погр.,
м
21 апреля, ср
ср2100:00+5всв61395100 4.8 1005692
03:00+6ю61297100 8.0 1002500
06:00+6ю31098100 2.0 1004464
09:00+5з3697100 7.4 1006377
12:00+4з4692100 0.2 1008382
15:00+6зюз5884100 0.5 1011801
18:00+6юз3883100 0.0 1012623
21:00+6ю3689100 0.1 1015164
22 апреля, чт
чт2200:00+6ю3991100 0.1 1015286
03:00+5ююз379492 0.3 1016216
06:00+4юз489697 0.1 1018296
09:00+8юз45735 0.1 1019640
12:00+12юз575587 0.0 10201742
15:00+13юз575599 0.1 10201680
18:00+12ю376865 0.0 1019267
21:00+9ю497349 0.0 1020137
23 апреля, пт
пт2300:00+9ю4970100 0.0 1020152
03:00+9ю3772100 0.0 1020135
06:00+9ю497691 0.0 1020193
09:00+13ю595993 0.0 1020555
12:00+15ю4748100 0.1 10192099
15:00+16ю684369 0.1 10172066
18:00+14ююв595893 0.1 1016512
21:00+10ююв512725 0.1 1016265
24 апреля, сб
сб2400:00+9ююв5138664 0.0 1013279
03:00+8ююв5138411 0.0 1011311
06:00+9ююз51182100 0.0 1010567
09:00+6з5692100 1.1 1010496
12:00+4зсз4895100 4.6 1011635
15:00+8з5666100 5.1 10101207
18:00+8зсз3665100 0.9 1010588
21:00+6з3573100 1.4 101199
25 апреля, вс
вс2500:00+4з37805 0.3 1011142
03:00+2зюз388484 0.3 1012163
06:00+2зюз410865 0.0 1013347
09:00+6зюз79645 0.0 10131257
12:00+7зюз795595 0.8 10141756
15:00+8зюз9114497 1.3 10142437
18:00+6зюз7116242 0.6 10141623
21:00+3юз49705 0.6 1015229